Regional Weather Roundup
Issued by NWS Bismarck, ND

Home | Current Version | Previous Version | Text Only | Print | Product List | Glossary On
Versions: 1 2 3 4 5 6 7 8 9 10 11 12 13 14 15 16 17 18 19 20 21 22 23 24 25 26 27 28 29 30 31 32 33 34 35 36 37 38 39 40 41 42 43 44 45 46 47 48 49 50
000
ASUS43 KBIS 180802
RWRBIS

NWR BROADCAST TEXT
NATIONAL WEATHER SERVICE BISMARCK ND
300 AM CDT FRI AUG 18 2017

NOTE: "FAIR" INDICATES FEW OR NO CLOUDS BELOW 12,000 FEET WITH NO
SIGNIFICANT WEATHER AND/OR OBSTRUCTIONS TO VISIBILITY.


CITY           SKY/WX    TMP DP  RH WIND       PRES   REMARKS
WILLISTON      PTCLDY    57  55  93 CALM      29.94R
MINOT          CLOUDY    63  57  81 S5        29.88S
MINOT AFB      CLOUDY    61  58  91 W5        29.88R
BISMARCK       PTCLDY    64  58  80 NW9       29.87R
DICKINSON      CLEAR     56  49  77 NW7       29.93S
GARRISON         N/A     61  54  77 NE15G24   29.88R
HETTINGER ARPT MOCLDY    55  47  74 NW3       29.96R
JAMESTOWN      CLOUDY    65  59  81 S3        29.89S
CARRINGTON     PTSUNNY   63  57  82 SE6       29.89S
HAZEN          FAIR      63  55  77 NE9G18    29.92R
LINTON         FAIR      63  57  82 CALM      29.88S
MANDAN         CLOUDY    64  57  77 NW17      29.88R
RUGBY          PTSUNNY   63  61  94 VRB7G17   29.87S
STANLEY        PTSUNNY   57  57 100 NW6       29.95R
TIOGA          FAIR      54  54 100 CALM      29.95R
WATFORD CITY   FAIR      54  52  94 CALM      29.93R
$$

CITY           SKY/WX    TMP DP  RH WIND       PRES   REMARKS
GRAND FORKS    MOCLDY    60  59  96 S6        29.83R
GRAND FORKS AF NOT AVBL
DEVILS LAKE    CLOUDY    67  59  75 CALM      29.87R
FARGO          MOCLDY    62  59  90 CALM      29.85S
CANDO          CLOUDY    61  61 100 NW3       29.88R
CAVALIER       FAIR      57  55  94 CALM      29.82S
GRAFTON        FAIR      57  57 100 CALM      29.84S
GWINNER        PTSUNNY   61  59  94 W5        29.88R
LANGDON        FAIR      54  54 100 SW3       29.86S
ROLLA          FAIR      59  59 100 SW5       29.88S
WALHALLA       FAIR      55  55 100 SW3       29.82S
$$

CITY           SKY/WX    TMP DP  RH WIND       PRES   REMARKS
ABERDEEN       LGT RAIN  65  57  75 S17       29.82F
MOBRIDGE       PTCLDY    66  59  78 S8        29.86S
BUFFALO          N/A     60  45  57 NW8       29.93R
RAPID CITY     CLEAR     61  47  59 W9        30.00S
GLASGOW        CLEAR     59  44  57 E8        29.96S
SIDNEY         PTCLDY    61  53  75 CALM      29.94R
WOLF POINT     CLEAR     58  46  64 CALM      29.97R
GLENDIVE       CLEAR     56  45  66 W6        29.97S
MILES CITY     PTCLDY    61  40  45 W7        29.98S
BAKER          PTCLDY    62  44  51 W3        29.99S
$$

CITY           SKY/WX    TMP DP  RH WIND       PRES   REMARKS
BILLINGS       CLEAR     67  39  35 SW7       30.05S
GREAT FALLS    CLEAR     58  37  45 SW9       30.05R
$$





USA.gov is the U.S. government's official web portal to all federal, state and local government web resources and services.